Location: Axtheid
(49.6213°N, 11.8205°E)
Time: 20:24:16
(UTC+00:00)

Cosmos 1937 Rocket - Pass Details

Date: 24 January 2021
Orbit: 746 x 780 km, 74.0° (Epoch: 02 March)

Event Time Altitude Azimuth Distance (km) Brightness Sun altitude
Rises 18:00:58 0° 193° (SSW) 3,244 7.0 -20.1°
Reaches altitude 10° 18:03:21 10° 191° (S) 2,324 6.2 -20.5°
Maximum altitude 18:08:36 68° 109° (ESE) 839 3.4 -21.4°
Enters shadow 18:10:45 36° 38° (NE) 1,229 4.2 -21.7°
